SCP
0 0 0 0 0 0 0 0 0 0 0 0 0 0 0 0 0 0 0 0 0 0 0 0 0 0 0 0 0 0 0 0 0 0 0 0 0 0 0 0 0 0 0
0 0 0 0 0 0 0 0 0 0 0 0 0 0 0 0 0 0 0 0 0 0 0 0 0 0 0 0 0 0 0 0 0 0 0 0 0 0 0 0 0 0 0
0 0 0 0 0 0 0 0 0 0 0 0 0 0 0 0 0 0 0 0 0 0 0 0 0 0 0 0 0 0 0 0 0 0 0 0 0 0 0 0 0 0 0
0 0 0 0 0 0 0 0 0 0 0 0 0 0 0 0 0 0 0 0 0 0 0 0 0 0 0 0 0 0 0 0 0 0 0 0 0 0 0 0 0 0 0
0 0 0 0 0 0 0 0 0 0 0 0 0 0 0 0 0 0 0 0 0 0 0 0 0 0 0 0 0 0 0 0 0 0 0 0 0 0 0 0 0 0 0
0 0 0 0 0 0 0 0 0 0 0 0 0 0 0 0 0 0 0 0 0 0 0 0 0 0 0 -0 -0 -0 0 0 0 0 0 0 0 0 0 0 0 0 0
0 0 0 0 0 0 0 0 0 0 0 0 0 0 0 0 0 0 0 0 0 0 0 0 0 0 0 0 -0 -0 -0 -0 0 0 0 0 0 0 0 0 0 0 0
0 0 0 0 0 0 0 0 0 0 0 0 0 0 0 0 0 0 0 0 0 0 0 0 0 0 0 0 0 0 0 0 0 0 0 0 0 0 0 0 0 0 0
0 0 0 0 0 0 0 0 0 0 0 0 0 0 0 0 0 0 0 0 0 0 0 0 0 0 0 -0 0 0 0 0 0 0 0 0 0 0 0 0 0 0 0
0 0 0 0 0 0 0 0 0 0 0 0 0 0 0 0 0 0 0 0 0 0 0 0 0 0 0 0 0 0 0 0 0 0 0 0 0 0 0 0 0 0 0
0 0 0 0 0 0 0 0 0 0 0 0 0 0 0 0 0 0 0 0 0 0 0 0 0 0 0 0 0 0 0 0 0 0 0 0 0 0 0 0 0 0 0
0 0 0 0 0 0 0 0 0 0 0 0 0 0 0 0 0 0 0 0 0 0 0 0 0 0 0 0 0 0 0 0 0 0 0 0 0 0 0 0 0 0 0
0 0 0 0 0 0 0 0 0 0 0 0 0 0 0 0 0 0 0 0 0 0 0 0 0 0 0 0 0 0 0 0 0 0 0 0 0 0 0 0 0 0 0
0 0 0 0 0 0 0 0 0 0 0 0 0 0 0 0 0 0 0 0 0 0 0 0 0 0 0 0 0 0 0 0 0 0 0 0 0 0 0 0 0 0 0
0 0 0 0 0 0 0 0 0 0 0 0 0 0 0 0 0 0 0 0 0 0 0 0 0 0 0 0 0 0 0 0 0 0 0 0 0 0 0 0 0 0 0
0 0 0 0 0 0 0 0 0 0 0 0 0 0 0 0 0 0 0 0 0 0 0 0 0 0 0 0 0 0 0 0 0 0 0 0 0 0 0 0 0 0 0
0 0 0 0 0 0 0 0 0 0 0 0 0 0 0 0 0 0 0 0 0 0 0 0 0 0 0 0 0 0 0 0 0 0 0 0 0 0 0 0 0 0 0
0 0 0 0 0 0 0 0 0 0 0 0 0 0 0 0 0 0 0 0 0 0 0 0 0 0 0 0 0 0 0 0 0 0 0 0 0 0 0 0 0 0 0
0 0 0 0 0 0 0 0 0 0 0 0 0 0 0 0 0 0 0 0 0 0 0 0 0 0 0 0 0 0 0 0 0 0 0 0 0 0 0 0 0 0 0
0 0 0 0 0 0 0 0 0 0 0 0 0 0 0 0 0 0 0 0 0 0 0 0 0 0 0 0 0 0 0 0 0 0 0 0 0 0 0 0 0 0 0
0 0 0 0 0 0 0 0 0 0 0 0 0 0 0 0 0 0 0 0 0 0 0 0 0 0 0 0 0 0 0 0 0 0 0 0 0 0 0 0 0 0 0
0 0 0 0 0 0 0 0 0 0 0 0 0 0 0 0 0 0 0 0 0 0 0 0 0 0 0 0 0 0 0 0 0 0 0 0 0 0 0 0 0 0 0
0 0 0 0 0 0 0 0 0 0 0 0 0 0 0 0 0 0 0 0 0 0 0 0 0 0 0 0 0 0 0 0 0 0 0 0 0 0 0 0 0 0 0
0 0 0 0 0 0 0 0 0 0 0 0 0 0 0 0 0 0 0 0 0 0 0 0 0 0 0 0 0 0 0 0 0 0 0 0 0 0 0 0 0 0 0
0 0 0 0 0 0 0 0 0 0 0 0 0 0 0 0 0 0 0 0 0 0 0 0 0 0 0 0 0 0 0 0 0 0 0 0 0 0 0 0 0 0 0
0 0 0 0 0 0 0 0 0 0 0 0 0 0 0 0 0 0 0 0 0 0 0 0 0 0 0 0 0 0 0 0 0 -0 0 0 0 0 -0 -0 -0 -0 -0
Wind_Speed_500mb
73 73 80 83 78 73 66 60 53 47 39 33 28 21 14 10 8 4 3 5 6 8 11 16 23 30 37 43 48 52 53 56 69 86 81 87 88 88 84 81 77 73 72
77 81 85 82 78 73 68 62 55 49 43 35 29 22 16 13 9 4 1 2 5 8 12 19 26 34 39 45 50 53 54 56 62 79 81 85 85 85 83 85 83 79 72
87 88 89 87 83 78 71 66 59 52 45 39 31 24 19 14 9 5 4 4 4 9 14 21 28 35 40 44 48 50 52 54 57 65 79 81 86 90 94 93 92 92 87
89 91 92 90 86 80 73 67 62 55 47 39 33 26 22 16 10 6 6 7 8 9 16 21 27 34 40 44 47 48 50 51 54 62 74 83 88 87 85 86 97 92 95
96 96 95 91 86 80 76 71 65 57 48 39 33 29 22 16 10 7 8 11 12 12 16 20 26 34 40 44 48 48 47 49 55 62 70 78 77 90 83 88 90 98 94
98 98 96 91 87 83 79 75 67 59 52 43 36 27 23 18 12 10 12 16 16 17 19 22 26 31 37 42 45 43 41 41 48 54 64 75 81 80 85 82 87 93 102
101 98 96 92 90 88 82 76 70 62 53 44 35 28 30 25 19 17 18 22 22 23 25 26 27 31 36 39 40 42 45 47 37 48 61 62 71 72 84 90 87 82 82
100 98 96 94 91 89 83 78 71 63 53 45 35 36 37 32 27 25 26 28 29 31 33 31 30 33 37 41 46 50 51 51 49 52 53 56 64 69 70 76 77 82 80
98 97 96 96 97 91 87 81 72 64 57 46 41 43 45 38 35 31 32 33 35 38 37 35 35 36 38 41 40 46 53 51 52 53 52 56 57 59 61 66 68 72 84
88 99 101 100 97 93 87 82 75 68 59 57 48 52 50 45 39 36 37 38 43 42 40 41 40 40 42 38 36 48 53 51 59 60 58 57 56 55 53 53 61 66 72
83 94 95 94 94 91 87 85 79 71 58 65 52 61 52 47 45 40 41 47 45 46 46 47 44 40 42 38 28 48 48 49 57 59 62 62 61 58 55 52 53 57 65
67 78 80 82 91 93 90 89 86 77 70 53 63 63 55 52 46 45 47 48 48 51 52 52 49 45 44 37 38 45 45 49 55 59 61 62 64 61 58 56 56 54 55
66 70 73 79 86 91 93 90 83 73 64 57 73 67 58 52 51 52 50 49 52 57 57 53 54 53 42 47 45 46 49 50 55 58 61 61 59 59 59 59 59 58 60
55 58 62 67 73 80 86 88 86 72 64 71 75 69 58 57 56 55 53 52 54 56 52 52 52 53 51 52 53 53 53 53 56 58 60 60 59 57 57 57 61 62 66
46 51 56 61 64 69 78 86 87 65 65 71 71 64 57 59 58 53 56 57 54 53 54 59 58 56 56 57 58 62 58 54 55 56 56 57 57 55 54 53 54 58 63
42 47 52 57 60 65 73 84 90 80 67 69 69 67 65 65 62 62 62 60 58 52 50 61 63 62 66 64 66 67 60 54 52 54 54 53 54 51 52 51 50 54 62
37 40 45 51 57 63 70 81 89 86 74 73 74 72 70 65 66 65 61 50 41 43 58 67 68 70 73 72 71 69 66 56 53 52 53 50 49 47 46 47 48 52 60
33 37 42 46 51 55 61 69 76 81 76 71 68 69 66 61 53 38 37 42 52 58 66 69 70 69 74 74 69 66 64 59 54 52 51 47 45 45 43 42 43 49 58
35 38 42 45 49 53 57 62 66 68 68 66 63 62 61 57 56 59 58 59 62 65 66 70 70 72 74 72 67 63 63 61 56 54 51 46 42 43 41 38 41 44 52
41 43 46 49 54 58 60 62 64 65 64 62 59 57 57 60 61 58 58 60 63 66 66 67 67 69 69 67 63 61 64 61 57 54 51 47 43 42 41 40 39 45 50
48 49 52 55 59 60 60 60 58 56 55 54 51 51 50 53 55 57 56 57 60 62 63 64 65 66 67 65 63 64 65 62 57 55 51 48 44 45 41 40 40 42 50
48 50 53 55 57 58 56 53 51 50 48 47 45 43 45 52 53 53 53 56 57 60 60 63 65 67 68 67 63 64 64 61 56 54 51 51 46 45 43 42 40 42 48
46 47 48 47 46 46 46 45 44 43 41 40 41 41 42 45 48 50 51 52 54 55 54 56 59 62 61 60 59 61 62 59 54 53 53 52 49 46 43 43 41 41 42
35 36 36 37 38 38 37 36 36 36 37 37 37 39 41 41 41 42 43 45 48 48 49 51 52 55 54 52 51 53 53 52 53 52 52 53 50 46 44 44 40 40 39
27 27 27 27 28 29 30 31 32 32 33 35 36 35 35 36 35 37 39 42 45 47 47 48 50 50 50 48 49 49 48 49 51 50 52 52 51 47 46 43 40 41 40
25 26 27 28 28 27 27 28 29 30 32 33 32 31 32 33 34 35 35 38 41 44 44 45 46 47 47 46 45 46 47 47 47 45 46 49 49 47 46 43 40 42 42
Wind_Direction_500mb
207 202 194 190 189 190 189 185 183 182 180 180 179 177 165 141 125 102 40 8 357 353 350 346 347 346 342 339 337 332 329 325 318 318 322 323 324 326 327 327 327 324 324
207 199 194 193 193 193 190 188 188 187 183 185 184 179 171 170 171 176 207 311 334 335 339 340 344 344 340 336 333 330 328 325 321 318 322 323 325 327 327 327 329 328 327
204 198 197 197 196 196 194 192 190 191 190 187 185 181 180 182 183 192 206 242 295 325 334 343 344 341 337 334 331 329 328 326 323 320 322 326 329 332 330 329 329 329 329
204 201 201 200 200 199 197 195 194 192 193 190 185 187 189 190 189 197 225 260 285 314 329 333 339 340 338 337 334 333 331 329 329 329 329 330 330 330 326 322 321 325 326
205 204 204 204 202 200 198 198 195 194 192 191 192 194 204 208 203 214 241 259 280 298 311 323 335 338 340 340 338 336 334 334 335 330 327 325 320 321 322 323 319 322 322
209 208 208 205 203 202 201 199 198 196 192 194 197 209 220 223 231 240 251 258 267 281 294 307 320 333 340 343 337 333 335 334 324 327 316 317 323 325 325 321 316 314 313
211 211 211 208 206 204 203 202 201 200 198 199 206 229 231 234 244 253 256 257 264 272 280 291 306 324 335 337 332 334 336 332 317 313 316 323 322 322 321 320 317 313 309
214 216 215 213 210 208 206 206 205 203 203 206 220 232 238 242 248 256 259 260 264 270 277 286 300 316 324 332 333 335 327 324 323 321 319 320 319 322 318 316 315 314 314
221 221 221 218 215 212 210 210 209 208 207 215 227 237 241 244 248 257 264 263 266 270 278 284 295 307 316 325 326 319 320 322 316 316 321 323 321 322 320 321 325 325 323
230 231 226 223 222 219 217 215 214 212 211 243 224 237 238 243 252 256 267 267 267 271 277 281 289 301 312 317 314 312 316 319 313 320 321 320 321 323 325 328 328 323 322
233 231 230 230 229 226 223 220 217 212 226 238 227 235 240 246 251 259 267 268 269 273 277 280 285 295 302 304 295 299 306 308 309 311 314 318 319 323 328 331 328 323 320
233 231 232 231 228 226 224 225 218 215 229 231 234 237 243 246 252 260 264 271 271 274 275 278 286 292 296 294 283 295 297 296 304 307 310 314 317 323 327 328 327 326 321
229 231 231 231 230 229 225 220 216 219 231 237 238 241 245 249 254 257 263 269 271 273 277 282 286 289 284 282 288 297 293 297 299 302 306 311 315 319 322 324 325 326 323
231 231 232 232 231 230 225 221 218 226 236 239 240 243 246 250 254 258 265 267 268 270 275 278 279 280 282 291 293 300 296 294 295 299 303 308 311 316 320 326 327 329 331
232 233 233 233 232 231 227 223 220 236 245 247 246 248 251 254 258 263 263 265 268 270 271 272 276 282 288 292 293 294 292 288 290 293 299 304 309 314 320 326 329 332 334
231 232 232 233 231 230 227 225 224 237 246 244 245 247 248 254 259 261 265 268 271 271 275 280 286 286 288 291 291 290 287 287 289 292 297 302 306 311 317 324 330 337 338
234 236 236 234 233 232 229 227 231 237 246 243 246 250 253 256 260 262 266 271 262 258 255 263 272 276 281 285 287 287 288 290 291 294 296 300 302 305 312 322 331 338 341
234 235 235 235 232 231 231 234 236 242 245 246 250 251 256 261 260 260 255 258 259 258 261 267 273 276 280 282 283 284 286 288 289 290 291 294 296 298 306 316 327 335 341
240 242 241 240 239 241 241 242 244 247 248 248 248 251 257 260 259 263 264 262 264 266 268 271 274 276 277 279 280 281 282 285 287 288 287 289 288 290 297 308 319 328 335
246 245 245 245 245 244 244 244 246 246 247 248 249 251 253 260 263 267 268 269 269 271 272 272 272 274 276 277 278 277 278 280 282 283 282 283 283 283 290 301 312 322 330
249 247 247 247 247 246 247 248 249 248 248 250 252 253 258 262 264 266 267 269 272 273 274 274 275 274 274 275 275 274 275 278 279 279 278 277 279 280 282 291 303 313 323
252 250 249 249 248 246 244 243 242 243 246 249 254 256 257 262 272 274 275 278 279 279 280 281 280 278 277 279 277 275 275 276 276 276 274 273 275 277 282 286 295 306 319
247 246 244 242 240 238 237 238 239 240 243 247 251 258 264 267 270 275 280 283 285 287 288 287 286 286 285 282 279 276 276 276 273 271 271 271 271 275 279 284 288 299 313
247 247 244 241 238 236 232 233 237 240 244 248 255 262 266 269 274 279 283 286 287 288 290 290 289 290 290 288 282 277 277 274 272 273 273 272 273 273 279 281 287 288 299
235 229 227 227 228 227 229 233 238 245 252 260 261 263 267 274 282 286 288 288 289 289 289 288 288 288 288 288 286 284 280 275 274 274 271 272 272 272 274 280 283 282 284
225 224 224 225 230 234 237 241 247 252 256 259 262 266 271 277 281 283 285 288 290 291 293 293 292 290 289 288 287 283 279 277 275 272 271 270 270 271 271 275 281 281 280
Wind_Speed_850mb
73 73 80 83 78 73 66 60 53 47 39 33 28 21 14 10 8 4 3 5 6 8 11 16 23 30 37 43 48 52 53 56 69 86 81 87 88 88 84 81 77 73 72
77 81 85 82 78 73 68 62 55 49 43 35 29 22 16 13 9 4 1 2 5 8 12 19 26 34 39 45 50 53 54 56 62 79 81 85 85 85 83 85 83 79 72
87 88 89 87 83 78 71 66 59 52 45 39 31 24 19 14 9 5 4 4 4 9 14 21 28 35 40 44 48 50 52 54 57 65 79 81 86 90 94 93 92 92 87
89 91 92 90 86 80 73 67 62 55 47 39 33 26 22 16 10 6 6 7 8 9 16 21 27 34 40 44 47 48 50 51 54 62 74 83 88 87 85 86 97 92 95
96 96 95 91 86 80 76 71 65 57 48 39 33 29 22 16 10 7 8 11 12 12 16 20 26 34 40 44 48 48 47 49 55 62 70 78 77 90 83 88 90 98 94
98 98 96 91 87 83 79 75 67 59 52 43 36 27 23 18 12 10 12 16 16 17 19 22 26 31 37 42 45 43 41 41 48 54 64 75 81 80 85 82 87 93 102
101 98 96 92 90 88 82 76 70 62 53 44 35 28 30 25 19 17 18 22 22 23 25 26 27 31 36 39 40 42 45 47 37 48 61 62 71 72 84 90 87 82 82
100 98 96 94 91 89 83 78 71 63 53 45 35 36 37 32 27 25 26 28 29 31 33 31 30 33 37 41 46 50 51 51 49 52 53 56 64 69 70 76 77 82 80
98 97 96 96 97 91 87 81 72 64 57 46 41 43 45 38 35 31 32 33 35 38 37 35 35 36 38 41 40 46 53 51 52 53 52 56 57 59 61 66 68 72 84
88 99 101 100 97 93 87 82 75 68 59 57 48 52 50 45 39 36 37 38 43 42 40 41 40 40 42 38 36 48 53 51 59 60 58 57 56 55 53 53 61 66 72
83 94 95 94 94 91 87 85 79 71 58 65 52 61 52 47 45 40 41 47 45 46 46 47 44 40 42 38 28 48 48 49 57 59 62 62 61 58 55 52 53 57 65
67 78 80 82 91 93 90 89 86 77 70 53 63 63 55 52 46 45 47 48 48 51 52 52 49 45 44 37 38 45 45 49 55 59 61 62 64 61 58 56 56 54 55
66 70 73 79 86 91 93 90 83 73 64 57 73 67 58 52 51 52 50 49 52 57 57 53 54 53 42 47 45 46 49 50 55 58 61 61 59 59 59 59 59 58 60
55 58 62 67 73 80 86 88 86 72 64 71 75 69 58 57 56 55 53 52 54 56 52 52 52 53 51 52 53 53 53 53 56 58 60 60 59 57 57 57 61 62 66
46 51 56 61 64 69 78 86 87 65 65 71 71 64 57 59 58 53 56 57 54 53 54 59 58 56 56 57 58 62 58 54 55 56 56 57 57 55 54 53 54 58 63
42 47 52 57 60 65 73 84 90 80 67 69 69 67 65 65 62 62 62 60 58 52 50 61 63 62 66 64 66 67 60 54 52 54 54 53 54 51 52 51 50 54 62
37 40 45 51 57 63 70 81 89 86 74 73 74 72 70 65 66 65 61 50 41 43 58 67 68 70 73 72 71 69 66 56 53 52 53 50 49 47 46 47 48 52 60
33 37 42 46 51 55 61 69 76 81 76 71 68 69 66 61 53 38 37 42 52 58 66 69 70 69 74 74 69 66 64 59 54 52 51 47 45 45 43 42 43 49 58
35 38 42 45 49 53 57 62 66 68 68 66 63 62 61 57 56 59 58 59 62 65 66 70 70 72 74 72 67 63 63 61 56 54 51 46 42 43 41 38 41 44 52
41 43 46 49 54 58 60 62 64 65 64 62 59 57 57 60 61 58 58 60 63 66 66 67 67 69 69 67 63 61 64 61 57 54 51 47 43 42 41 40 39 45 50
48 49 52 55 59 60 60 60 58 56 55 54 51 51 50 53 55 57 56 57 60 62 63 64 65 66 67 65 63 64 65 62 57 55 51 48 44 45 41 40 40 42 50
48 50 53 55 57 58 56 53 51 50 48 47 45 43 45 52 53 53 53 56 57 60 60 63 65 67 68 67 63 64 64 61 56 54 51 51 46 45 43 42 40 42 48
46 47 48 47 46 46 46 45 44 43 41 40 41 41 42 45 48 50 51 52 54 55 54 56 59 62 61 60 59 61 62 59 54 53 53 52 49 46 43 43 41 41 42
35 36 36 37 38 38 37 36 36 36 37 37 37 39 41 41 41 42 43 45 48 48 49 51 52 55 54 52 51 53 53 52 53 52 52 53 50 46 44 44 40 40 39
27 27 27 27 28 29 30 31 32 32 33 35 36 35 35 36 35 37 39 42 45 47 47 48 50 50 50 48 49 49 48 49 51 50 52 52 51 47 46 43 40 41 40
25 26 27 28 28 27 27 28 29 30 32 33 32 31 32 33 34 35 35 38 41 44 44 45 46 47 47 46 45 46 47 47 47 45 46 49 49 47 46 43 40 42 42
Wind_Direction_850mb
207 202 194 190 189 190 189 185 183 182 180 180 179 177 165 141 125 102 40 8 357 353 350 346 347 346 342 339 337 332 329 325 318 318 322 323 324 326 327 327 327 324 324
207 199 194 193 193 193 190 188 188 187 183 185 184 179 171 170 171 176 207 311 334 335 339 340 344 344 340 336 333 330 328 325 321 318 322 323 325 327 327 327 329 328 327
204 198 197 197 196 196 194 192 190 191 190 187 185 181 180 182 183 192 206 242 295 325 334 343 344 341 337 334 331 329 328 326 323 320 322 326 329 332 330 329 329 329 329
204 201 201 200 200 199 197 195 194 192 193 190 185 187 189 190 189 197 225 260 285 314 329 333 339 340 338 337 334 333 331 329 329 329 329 330 330 330 326 322 321 325 326
205 204 204 204 202 200 198 198 195 194 192 191 192 194 204 208 203 214 241 259 280 298 311 323 335 338 340 340 338 336 334 334 335 330 327 325 320 321 322 323 319 322 322
209 208 208 205 203 202 201 199 198 196 192 194 197 209 220 223 231 240 251 258 267 281 294 307 320 333 340 343 337 333 335 334 324 327 316 317 323 325 325 321 316 314 313
211 211 211 208 206 204 203 202 201 200 198 199 206 229 231 234 244 253 256 257 264 272 280 291 306 324 335 337 332 334 336 332 317 313 316 323 322 322 321 320 317 313 309
214 216 215 213 210 208 206 206 205 203 203 206 220 232 238 242 248 256 259 260 264 270 277 286 300 316 324 332 333 335 327 324 323 321 319 320 319 322 318 316 315 314 314
221 221 221 218 215 212 210 210 209 208 207 215 227 237 241 244 248 257 264 263 266 270 278 284 295 307 316 325 326 319 320 322 316 316 321 323 321 322 320 321 325 325 323
230 231 226 223 222 219 217 215 214 212 211 243 224 237 238 243 252 256 267 267 267 271 277 281 289 301 312 317 314 312 316 319 313 320 321 320 321 323 325 328 328 323 322
233 231 230 230 229 226 223 220 217 212 226 238 227 235 240 246 251 259 267 268 269 273 277 280 285 295 302 304 295 299 306 308 309 311 314 318 319 323 328 331 328 323 320
233 231 232 231 228 226 224 225 218 215 229 231 234 237 243 246 252 260 264 271 271 274 275 278 286 292 296 294 283 295 297 296 304 307 310 314 317 323 327 328 327 326 321
229 231 231 231 230 229 225 220 216 219 231 237 238 241 245 249 254 257 263 269 271 273 277 282 286 289 284 282 288 297 293 297 299 302 306 311 315 319 322 324 325 326 323
231 231 232 232 231 230 225 221 218 226 236 239 240 243 246 250 254 258 265 267 268 270 275 278 279 280 282 291 293 300 296 294 295 299 303 308 311 316 320 326 327 329 331
232 233 233 233 232 231 227 223 220 236 245 247 246 248 251 254 258 263 263 265 268 270 271 272 276 282 288 292 293 294 292 288 290 293 299 304 309 314 320 326 329 332 334
231 232 232 233 231 230 227 225 224 237 246 244 245 247 248 254 259 261 265 268 271 271 275 280 286 286 288 291 291 290 287 287 289 292 297 302 306 311 317 324 330 337 338
234 236 236 234 233 232 229 227 231 237 246 243 246 250 253 256 260 262 266 271 262 258 255 263 272 276 281 285 287 287 288 290 291 294 296 300 302 305 312 322 331 338 341
234 235 235 235 232 231 231 234 236 242 245 246 250 251 256 261 260 260 255 258 259 258 261 267 273 276 280 282 283 284 286 288 289 290 291 294 296 298 306 316 327 335 341
240 242 241 240 239 241 241 242 244 247 248 248 248 251 257 260 259 263 264 262 264 266 268 271 274 276 277 279 280 281 282 285 287 288 287 289 288 290 297 308 319 328 335
246 245 245 245 245 244 244 244 246 246 247 248 249 251 253 260 263 267 268 269 269 271 272 272 272 274 276 277 278 277 278 280 282 283 282 283 283 283 290 301 312 322 330
249 247 247 247 247 246 247 248 249 248 248 250 252 253 258 262 264 266 267 269 272 273 274 274 275 274 274 275 275 274 275 278 279 279 278 277 279 280 282 291 303 313 323
252 250 249 249 248 246 244 243 242 243 246 249 254 256 257 262 272 274 275 278 279 279 280 281 280 278 277 279 277 275 275 276 276 276 274 273 275 277 282 286 295 306 319
247 246 244 242 240 238 237 238 239 240 243 247 251 258 264 267 270 275 280 283 285 287 288 287 286 286 285 282 279 276 276 276 273 271 271 271 271 275 279 284 288 299 313
247 247 244 241 238 236 232 233 237 240 244 248 255 262 266 269 274 279 283 286 287 288 290 290 289 290 290 288 282 277 277 274 272 273 273 272 273 273 279 281 287 288 299
235 229 227 227 228 227 229 233 238 245 252 260 261 263 267 274 282 286 288 288 289 289 289 288 288 288 288 288 286 284 280 275 274 274 271 272 272 272 274 280 283 282 284
225 224 224 225 230 234 237 241 247 252 256 259 262 266 271 277 281 283 285 288 290 291 293 293 292 290 289 288 287 283 279 277 275 272 271 270 270 271 271 275 281 281 280